Hot Springs, VA

7:58 PM EDT on September 19, 2017 (GMT -0400)
Ingalls

Weather History for KHSP - November, 2010

Change the Weather History Date:

Friday, November 26, 2010

  Actual Average Record
Temperature  
Mean Temperature 40 °F -  
Max Temperature 55 °F 42 °F 64 °F (2006)
Min Temperature 26 °F 29 °F 19 °F (2004)
Degree Days  
Heating Degree Days 24    
Moisture  
Dew Point 35 °F    
Average Humidity 91    
Maximum Humidity 100    
Minimum Humidity 69    
Precipitation  
Precipitation 0.00 in - - ()
Sea Level Pressure  
Sea Level Pressure 29.76 in    
Wind  
Wind Speed 22 mph (West)    
Max Wind Speed 30 mph    
Max Gust Speed 41 mph    
Visibility 8 miles    
Events      
Averages and records for this station are not official NWS values.
T = Trace of Precipitation, MM = Missing Value Source: NWS Daily Summary

Daily Weather History Graph

Daily Weather History Graph

Search for Another Location

Airport or City:

Trip Planner

Search our weather history database for the weather conditions in past years. The results will help you decide how hot, cold, wet, or windy it might be!

Date:

Astronomy

Nov. 26, 2010 Rise Set
Actual Time 7:11 AM EST 5:01 PM EST
Civil Twilight 6:42 AM EST 5:30 PM EST
Nautical Twilight 6:10 AM EST 6:02 PM EST
Astronomical Twilight 5:38 AM EST 6:34 PM EST
Moon 10:06 PM EST (11/26) 11:18 AM EST (11/26)
Length of Visible Light 10h 47m
Length of Day
9h 50m
Waning Gibbous, 73% of the Moon is Illuminated
Nov 26
Waning Gibbous
Nov 28
Last Quarter
Dec 5
New
Dec 13
First Quarter
Dec 21
Full

Hourly Weather History & Observations

Time (EST) Temp. Windchill Dew Point Humidity Pressure Visibility Wind Dir Wind Speed Gust Speed Precip Events Conditions
12:00 AM - - - N/A% 29.79 in - North - - N/A   Unknown
12:20 AM 53.6 °F - 51.8 °F 94% 29.77 in 10.0 mi SSW 16.1 mph 28.8 mph N/A   Unknown
12:40 AM 53.6 °F - 51.8 °F 94% 29.76 in - North - - N/A   Unknown
1:00 AM 55.4 °F - 51.8 °F 88% 29.74 in 10.0 mi SW 20.7 mph 32.2 mph N/A   Mostly Cloudy
1:20 AM 55.4 °F - 51.8 °F 88% 29.75 in 10.0 mi SW 23.0 mph 32.2 mph N/A   Overcast
1:40 AM 53.6 °F - 51.8 °F 94% 29.75 in 7.0 mi WSW 17.3 mph 32.2 mph N/A   Overcast
2:00 AM 48.2 °F - 48.2 °F 100% 29.77 in - North - - N/A   Unknown
2:20 AM - - - N/A% 29.77 in - North - - N/A   Unknown
2:40 AM - - - N/A% 29.78 in - North - - N/A   Unknown
3:00 AM - - - N/A% 29.76 in - North - - N/A   Unknown
3:40 AM 48.2 °F - 48.2 °F 100% 29.77 in - North - - N/A   Unknown
4:00 AM - - - N/A% 29.77 in - North - - N/A   Unknown
4:20 AM 48.2 °F - 48.2 °F 100% 29.76 in 10.0 mi West 23.0 mph 31.1 mph N/A   Overcast
4:40 AM 46.4 °F 38.1 °F 46.4 °F 100% 29.76 in 10.0 mi West 24.2 mph 33.4 mph N/A   Overcast
5:00 AM - - - N/A% - - North - - N/A   Unknown
5:20 AM 46.4 °F 37.9 °F 46.4 °F 100% 29.77 in 0.2 mi West 25.3 mph 33.4 mph N/A   Unknown
5:40 AM 46.4 °F 38.7 °F 46.4 °F 100% 29.78 in 0.2 mi West 20.7 mph 31.1 mph N/A   Overcast
6:00 AM 46.4 °F 38.1 °F 46.4 °F 100% 29.79 in 0.5 mi West 24.2 mph 29.9 mph N/A   Overcast
6:20 AM 46.4 °F 38.1 °F 46.4 °F 100% 29.79 in 0.2 mi West 24.2 mph 33.4 mph N/A   Overcast
6:40 AM 44.6 °F 34.9 °F 44.6 °F 100% 29.78 in 1.5 mi West 28.8 mph 35.7 mph N/A   Overcast
7:00 AM 44.6 °F 36.4 °F 44.6 °F 100% 29.79 in 1.2 mi West 20.7 mph 26.5 mph N/A   Overcast
7:20 AM 44.6 °F 35.1 °F 44.6 °F 100% 29.78 in 10.0 mi West 27.6 mph 33.4 mph N/A   Overcast
7:40 AM 42.8 °F 32.3 °F 42.8 °F 100% 29.77 in 10.0 mi West 29.9 mph 39.1 mph N/A   Overcast
8:00 AM 42.8 °F 32.9 °F 42.8 °F 100% 29.76 in 10.0 mi West 26.5 mph 34.5 mph N/A   Overcast
8:20 AM 42.8 °F 33.5 °F 42.8 °F 100% 29.75 in 10.0 mi West 23.0 mph 31.1 mph N/A   Overcast
8:40 AM 42.8 °F 33.1 °F 42.8 °F 100% 29.75 in 10.0 mi West 25.3 mph 32.2 mph N/A   Overcast
9:00 AM 42.8 °F 33.5 °F 42.8 °F 100% 29.74 in 10.0 mi West 23.0 mph 34.5 mph N/A   Overcast
9:20 AM 42.8 °F 34.0 °F 42.8 °F 100% 29.76 in 4.0 mi West 20.7 mph 27.6 mph N/A   Overcast
10:00 AM 37.4 °F 26.1 °F 37.4 °F 100% 29.78 in 0.2 mi West 24.2 mph 31.1 mph N/A   Overcast
10:20 AM 35.6 °F 25.2 °F 35.6 °F 100% 29.77 in 10.0 mi West 18.4 mph 29.9 mph N/A   Overcast
11:00 AM 35.6 °F 25.2 °F 35.6 °F 100% 29.77 in 10.0 mi WNW 18.4 mph 24.2 mph N/A   Overcast
11:20 AM 35.6 °F 24.2 °F 35.6 °F 100% 29.78 in 10.0 mi West 21.9 mph 26.5 mph N/A   Overcast
11:40 AM 35.6 °F 24.2 °F 35.6 °F 100% 29.76 in 10.0 mi WNW 21.9 mph 28.8 mph N/A   Overcast
12:00 PM 33.8 °F 21.3 °F 33.8 °F 100% 29.75 in 10.0 mi West 24.2 mph 31.1 mph N/A   Overcast
12:20 PM 33.8 °F 21.9 °F 33.8 °F 100% 29.75 in 10.0 mi West 21.9 mph 32.2 mph N/A   Overcast
12:40 PM 33.8 °F 21.9 °F 33.8 °F 100% 29.76 in 10.0 mi West 21.9 mph 28.8 mph N/A   Overcast
1:00 PM 33.8 °F 22.5 °F 33.8 °F 100% 29.77 in 10.0 mi West 19.6 mph 35.7 mph N/A   Overcast
1:20 PM 33.8 °F 22.2 °F 33.8 °F 100% 29.76 in 10.0 mi West 20.7 mph 25.3 mph N/A   Overcast
1:40 PM 33.8 °F 21.6 °F 30.2 °F 87% 29.76 in 10.0 mi West 23.0 mph 31.1 mph N/A   Scattered Clouds
2:00 PM 32.0 °F 18.4 °F 26.6 °F 80% 29.76 in 10.0 mi West 26.5 mph 32.2 mph N/A   Clear
2:20 PM 32.0 °F - 26.6 °F 80% 29.76 in - North - - N/A   Unknown
2:40 PM - - - N/A% 29.75 in - North - - N/A   Unknown
3:00 PM - - - N/A% 29.74 in - West 21.9 mph 32.2 mph N/A   Unknown
3:20 PM 30.2 °F - 21.2 °F 69% 29.75 in 10.0 mi North - - N/A   Clear
3:40 PM - - - N/A% 29.74 in - West 19.6 mph 29.9 mph N/A   Unknown
4:00 PM - - - N/A% 29.77 in - West 19.6 mph 29.9 mph N/A   Unknown
4:20 PM 30.2 °F - 21.2 °F 69% 29.75 in - North - - N/A   Unknown
4:40 PM - - - N/A% 29.75 in - WNW 21.9 mph 26.5 mph N/A   Unknown
5:00 PM 28.4 °F 14.1 °F 21.2 °F 74% 29.74 in 10.0 mi West 24.2 mph 31.1 mph N/A   Clear
5:20 PM 28.4 °F 14.1 °F 21.2 °F 74% 29.75 in 10.0 mi WNW 24.2 mph 33.4 mph N/A   Clear
5:40 PM 28.4 °F 13.8 °F 21.2 °F 74% 29.76 in 10.0 mi West 25.3 mph 34.5 mph N/A   Clear
6:00 PM 28.4 °F 14.7 °F 21.2 °F 74% 29.75 in 10.0 mi West 21.9 mph 31.1 mph N/A   Clear
6:20 PM 28.4 °F 14.4 °F 21.2 °F 74% 29.74 in 10.0 mi West 23.0 mph 31.1 mph N/A   Clear
6:40 PM 28.4 °F 14.4 °F 23.0 °F 80% 29.73 in 10.0 mi West 23.0 mph 33.4 mph N/A   Clear
7:00 PM 28.4 °F 14.1 °F 23.0 °F 80% 29.73 in 10.0 mi WNW 24.2 mph 29.9 mph N/A   Clear
7:20 PM 28.4 °F 13.8 °F 23.0 °F 80% 29.75 in 10.0 mi West 25.3 mph 35.7 mph N/A   Clear
7:40 PM 26.6 °F 11.7 °F 21.2 °F 80% 29.73 in 10.0 mi WNW 24.2 mph 34.5 mph N/A   Clear
8:00 PM 26.6 °F 11.4 °F 21.2 °F 80% 29.73 in 10.0 mi WNW 25.3 mph 33.4 mph N/A   Clear
8:20 PM 26.6 °F 10.6 °F 23.0 °F 86% 29.73 in 10.0 mi WNW 28.8 mph 35.7 mph N/A   Clear
9:00 PM 26.6 °F 10.3 °F 23.0 °F 86% 29.72 in 10.0 mi West 29.9 mph 36.8 mph N/A   Unknown
9:20 PM 26.6 °F 10.3 °F 23.0 °F 86% 29.72 in 10.0 mi WNW 29.9 mph 41.4 mph N/A   Unknown
9:40 PM 26.6 °F 10.8 °F 21.2 °F 80% 29.72 in 10.0 mi West 27.6 mph 39.1 mph N/A   Unknown
10:00 PM 26.6 °F 10.0 °F 21.2 °F 80% 29.73 in 10.0 mi WNW 31.1 mph 40.3 mph N/A   Unknown
10:20 PM 24.8 °F 7.6 °F 21.2 °F 86% 29.73 in 10.0 mi West 31.1 mph 41.4 mph N/A   Unknown
10:40 PM 24.8 °F 6.8 °F 19.4 °F 80% 29.72 in 10.0 mi West 34.5 mph 40.3 mph N/A   Unknown
11:00 PM 24.8 °F 7.6 °F 19.4 °F 80% 29.73 in 10.0 mi West 31.1 mph 41.4 mph N/A   Unknown
11:20 PM 24.8 °F 7.1 °F 19.4 °F 80% 29.73 in 10.0 mi West 33.4 mph 41.4 mph N/A   Unknown
11:40 PM 24.8 °F 8.1 °F 19.4 °F 80% 29.74 in 10.0 mi WNW 28.8 mph 40.3 mph N/A   Unknown